Flag for Brazil Weather past 2 weeks in Santos, São Paulo, Brazil

Now
55 °F

Sunny.


Feels Like: 52 °F
Forecast: 60 / 77 °F
Wind: 15 mph from East

Location: Sao Paulo Airport

Current Time: Sep 23, 2014 at 5:47:59 AM

Latest Report: Sep 23, 2014 at 5:00 AM


Visibility: 10 mi

Pressure: 30.12 "Hg

Humidity: 77%

Dew point: 48 °F

Location of SantosLocation

Historic Weather in Santos — Graph

°F

Santos temperature yesterday

Maximum temperature yesterday: 66 °F (at 1:00 PM)
Minimum temperature yesterday: 54 °F (at 5:00 AM)
Average temperature yesterday: 60 °F

Past Weeks' High & Low Weather Summary

 TemperatureHumidityPressure
High90 °F (Sep 11, 1:00 PM)88% (Sep 19, 3:00 AM)30.30 "Hg (Sep 19, 3:00 AM)
Low54 °F (Sep 22, 5:00 AM)15% (Sep 9, 2:00 PM)29.98 "Hg (Sep 10, 4:00 PM)
Average68 °F62%30.12 "Hg
* Reported Sep 8 5:00 AM — Sep 23 5:00 AM, Santos, Weather by CustomWeather, © 2014

Note: Actual official high and low records may vary slightly from our data, if they occured in-between our weather recording intervals... More about our weather records

Advertising

Santos weather history for previous 24 hours

 ConditionsComfort  
Time TempWeatherWind HumidityBarometerVisibility
5:00 AM
Sep 23
55 °FSunny.15 mph77%30.12 "Hg10 mi
4:00 AM55 °FClear.5 mph77%30.15 "Hg10 mi
3:00 AM55 °FClear.7 mph77%30.15 "Hg10 mi
2:00 AM57 °FPassing clouds.8 mph77%30.18 "HgN/A
1:00 AM57 °FPassing clouds.10 mph77%30.21 "HgN/A
12:00 AM57 °FPartly cloudy.12 mph77%30.21 "HgN/A
11:00 PM
Sep 22
59 °FPassing clouds.9 mph72%30.21 "HgN/A
10:00 PM59 °FMostly cloudy.13 mph72%30.24 "HgN/A
9:00 PM59 °FMostly cloudy.9 mph77%30.21 "HgN/A
8:00 PM59 °FPassing clouds.10 mph72%30.21 "HgN/A
7:00 PM59 °FPassing clouds.14 mph72%30.18 "HgN/A
6:00 PM59 °FPassing clouds.15 mph72%30.18 "HgN/A
5:00 PM61 °FPartly sunny.17 mph68%30.18 "HgN/A
4:00 PM64 °FPartly sunny.20 mph64%30.18 "HgN/A
3:00 PM66 °FScattered clouds.17 mph56%30.18 "HgN/A
2:00 PM66 °FScattered clouds.17 mph52%30.21 "HgN/A
1:00 PM66 °FScattered clouds.16 mph52%30.21 "HgN/A
12:00 PM64 °FPartly sunny.16 mph60%30.24 "HgN/A
11:00 AM64 °FPartly sunny.12 mph56%30.27 "HgN/A
10:00 AM61 °FPartly sunny.12 mph63%30.27 "HgN/A
9:00 AM61 °FScattered clouds.10 mph59%30.27 "HgN/A
8:00 AM59 °FSunny.10 mph72%30.24 "Hg10 mi
7:00 AM57 °FSunny.8 mph77%30.21 "Hg10 mi
6:00 AM55 °FPassing clouds.12 mph77%30.21 "HgN/A
5:00 AM54 °FScattered clouds.8 mph82%30.18 "HgN/A
Weather by CustomWeather, © 2014

See weather overviewHow to use our weather pages